EDW3CM LWSK-LSZH

Flight info

Callsign EDW3CM
Flight time N/A
Altitude 36000
Route RAXAD DCT IBISI DCT LURID DCT BERTA DCT ERKIR DCT KPT L856 NEGRA
Aircraft A320/M-SDE2E3FGHIJ1RWXY/LB1

Departure

Time 2026-04-28 10:07
Airport Skopje International Airport (LWSK)

Arrival

Time N/A
Airport Zürich Airport (LSZH)
Time Latitude Longitude Altitude Speed Heading
2026-04-28 10:01 41.96062 21.62527 793 ft 0 kts 166°
2026-04-28 10:03 41.96046 21.62532 793 ft 6 kts 166°
2026-04-28 10:03 41.96014 21.62485 792 ft 10 kts 257°
2026-04-28 10:04 41.95957 21.62484 791 ft 8 kts 163°
2026-04-28 10:04 41.95898 21.62506 791 ft 10 kts 165°
2026-04-28 10:04 41.95818 21.62534 789 ft 14 kts 166°
2026-04-28 10:04 41.95712 21.62570 786 ft 17 kts 166°
2026-04-28 10:05 41.95590 21.62612 785 ft 19 kts 165°
2026-04-28 10:05 41.95457 21.62663 783 ft 21 kts 165°
2026-04-28 10:05 41.95307 21.62714 781 ft 24 kts 166°
2026-04-28 10:05 41.95174 21.62751 778 ft 13 kts 188°
2026-04-28 10:06 41.95133 21.62660 778 ft 12 kts 257°
2026-04-28 10:06 41.95115 21.62566 779 ft 9 kts 255°
2026-04-28 10:06 41.95111 21.62511 781 ft 4 kts 288°
2026-04-28 10:06 41.95146 21.62496 781 ft 7 kts 353°
2026-04-28 10:07 41.95326 21.62445 781 ft 61 kts 343°
2026-04-28 10:07 41.95957 21.62216 787 ft 125 kts 345°
2026-04-28 10:07 41.96918 21.61882 1079 ft 143 kts 346°
2026-04-28 10:07 41.97889 21.61556 1633 ft 145 kts 346°
2026-04-28 10:08 41.98879 21.61216 2148 ft 148 kts 346°
2026-04-28 10:08 41.99892 21.60868 2593 ft 154 kts 346°
2026-04-28 10:08 42.00971 21.60818 2997 ft 158 kts 15°
2026-04-28 10:08 42.01928 21.61512 3446 ft 159 kts 45°
2026-04-28 10:09 42.02498 21.62772 3851 ft 162 kts 73°
2026-04-28 10:09 42.02554 21.64442 3858 ft 197 kts 99°
2026-04-28 10:09 42.02315 21.66365 4087 ft 221 kts 99°
2026-04-28 10:09 42.02051 21.68522 4415 ft 245 kts 99°
2026-04-28 10:10 42.01777 21.70818 5111 ft 252 kts 99°
2026-04-28 10:10 42.01662 21.73171 5909 ft 255 kts 81°
2026-04-28 10:10 42.02317 21.75389 6622 ft 263 kts 57°
2026-04-28 10:10 42.03368 21.77452 7299 ft 270 kts 54°
2026-04-28 10:11 42.04459 21.79530 8069 ft 274 kts 54°
2026-04-28 10:11 42.05570 21.81641 8838 ft 278 kts 54°
2026-04-28 10:11 42.06688 21.83777 9612 ft 281 kts 55°
2026-04-28 10:11 42.07819 21.85941 10260 ft 290 kts 55°
2026-04-28 10:12 42.09022 21.88249 10481 ft 313 kts 55°
2026-04-28 10:12 42.10355 21.90687 10801 ft 330 kts 52°
2026-04-28 10:12 42.11850 21.93070 11424 ft 336 kts 43°
2026-04-28 10:12 42.13794 21.94833 12078 ft 340 kts 23°
2026-04-28 10:13 42.16093 21.95577 12729 ft 344 kts
2026-04-28 10:13 42.18470 21.95181 13370 ft 347 kts 346°
2026-04-28 10:13 42.20826 21.94384 14024 ft 350 kts 345°
2026-04-28 10:13 42.23196 21.93563 14655 ft 353 kts 345°
2026-04-28 10:14 42.25587 21.92729 15252 ft 357 kts 345°
2026-04-28 10:14 42.28006 21.91888 15846 ft 360 kts 345°
2026-04-28 10:14 42.30459 21.91038 16208 ft 371 kts 346°
2026-04-28 10:14 42.32899 21.90197 16331 ft 386 kts 346°
2026-04-28 10:15 42.35443 21.89319 16455 ft 401 kts 346°
2026-04-28 10:15 42.38161 21.88384 16606 ft 413 kts 346°
2026-04-28 10:15 42.40749 21.87495 16930 ft 418 kts 346°
2026-04-28 10:15 42.43575 21.86526 17220 ft 425 kts 345°
2026-04-28 10:16 42.46446 21.85540 17800 ft 424 kts 345°
2026-04-28 10:16 42.49300 21.84560 18325 ft 424 kts 344°
2026-04-28 10:16 42.52165 21.83574 18730 ft 426 kts 344°
2026-04-28 10:16 42.55039 21.82584 19116 ft 427 kts 344°
2026-04-28 10:17 42.57929 21.81586 19484 ft 429 kts 344°
2026-04-28 10:17 42.60826 21.80581 19837 ft 431 kts 344°
2026-04-28 10:17 42.63734 21.79570 20171 ft 433 kts 344°
2026-04-28 10:17 42.66654 21.78554 20501 ft 434 kts 344°
2026-04-28 10:18 42.69588 21.77536 20834 ft 436 kts 344°
2026-04-28 10:18 42.72537 21.76514 21145 ft 438 kts 344°
2026-04-28 10:18 42.75489 21.75492 21471 ft 439 kts 343°
2026-04-28 10:18 42.78458 21.74459 21764 ft 441 kts 343°
2026-04-28 10:19 42.81438 21.73417 22064 ft 443 kts 343°
2026-04-28 10:19 42.84423 21.72373 22354 ft 444 kts 343°
2026-04-28 10:19 42.87421 21.71324 22654 ft 446 kts 343°
2026-04-28 10:19 42.90419 21.70225 22957 ft 446 kts 340°
2026-04-28 10:20 42.93277 21.68611 23238 ft 444 kts 331°
2026-04-28 10:20 42.95898 21.66386 23486 ft 444 kts 322°
2026-04-28 10:20 42.98217 21.63614 23735 ft 444 kts 313°
2026-04-28 10:20 43.00193 21.60375 23932 ft 445 kts 306°
2026-04-28 10:21 43.02040 21.56982 24141 ft 445 kts 306°
2026-04-28 10:21 43.03883 21.53593 24410 ft 444 kts 306°
2026-04-28 10:21 43.05722 21.50208 24700 ft 443 kts 306°
2026-04-28 10:21 43.07551 21.46829 24984 ft 442 kts 306°
2026-04-28 10:22 43.09377 21.43451 25271 ft 441 kts 306°
2026-04-28 10:22 43.11198 21.40084 25567 ft 440 kts 306°
2026-04-28 10:22 43.13016 21.36721 25865 ft 439 kts 306°
2026-04-28 10:22 43.14831 21.33362 26173 ft 438 kts 306°
2026-04-28 10:23 43.16638 21.30012 26495 ft 437 kts 306°
2026-04-28 10:23 43.18442 21.26669 26801 ft 435 kts 307°
2026-04-28 10:23 43.20237 21.23343 27126 ft 434 kts 306°
2026-04-28 10:23 43.22027 21.20017 27439 ft 433 kts 306°
2026-04-28 10:24 43.23808 21.16696 27766 ft 432 kts 306°
2026-04-28 10:24 43.25581 21.13382 28085 ft 431 kts 306°
2026-04-28 10:24 43.27350 21.10074 28420 ft 430 kts 306°
2026-04-28 10:24 43.29116 21.06773 28761 ft 428 kts 306°
2026-04-28 10:25 43.30881 21.03479 29115 ft 427 kts 306°
2026-04-28 10:25 43.32634 21.00201 29471 ft 426 kts 306°
2026-04-28 10:25 43.34385 20.96923 29858 ft 424 kts 306°
2026-04-28 10:25 43.36124 20.93660 30213 ft 423 kts 306°
2026-04-28 10:26 43.37857 20.90400 30530 ft 422 kts 306°
2026-04-28 10:26 43.39582 20.87153 30828 ft 421 kts 306°
2026-04-28 10:26 43.41307 20.83903 31132 ft 420 kts 306°
2026-04-28 10:26 43.43023 20.80666 31444 ft 419 kts 306°
2026-04-28 10:27 43.44712 20.77477 31720 ft 417 kts 306°
2026-04-28 10:27 43.46422 20.74249 31997 ft 417 kts 306°
2026-04-28 10:27 43.48125 20.71028 32311 ft 416 kts 306°
2026-04-28 10:27 43.49823 20.67812 32627 ft 414 kts 306°
2026-04-28 10:28 43.51515 20.64604 32909 ft 413 kts 306°
2026-04-28 10:28 43.53203 20.61407 33200 ft 412 kts 306°
2026-04-28 10:28 43.54886 20.58214 33509 ft 412 kts 306°
2026-04-28 10:29 43.58238 20.51838 34113 ft 410 kts 306°
2026-04-28 10:29 43.59909 20.48656 34363 ft 409 kts 306°
2026-04-28 10:29 43.61576 20.45476 34609 ft 408 kts 306°
2026-04-28 10:29 43.63236 20.42298 34831 ft 408 kts 306°
2026-04-28 10:30 43.64894 20.39122 35046 ft 408 kts 306°
2026-04-28 10:30 43.66552 20.35946 35276 ft 407 kts 306°
2026-04-28 10:30 43.68206 20.32774 35512 ft 406 kts 305°
2026-04-28 10:30 43.69855 20.29611 35737 ft 406 kts 306°
2026-04-28 10:31 43.71502 20.26447 35950 ft 405 kts 305°
2026-04-28 10:31 43.73151 20.23279 36106 ft 405 kts 305°
2026-04-28 10:31 43.74801 20.20108 36147 ft 409 kts 305°
2026-04-28 10:32 43.78142 20.13680 36142 ft 412 kts 305°
2026-04-28 10:32 43.81475 20.07242 36150 ft 412 kts 305°
2026-04-28 10:33 43.84809 20.00788 36145 ft 412 kts 305°
2026-04-28 10:33 43.88135 19.94324 36146 ft 412 kts 305°
2026-04-28 10:34 43.91455 19.87857 36135 ft 412 kts 305°
2026-04-28 10:34 43.94781 19.81378 36139 ft 412 kts 305°
2026-04-28 10:35 43.98105 19.74897 36148 ft 412 kts 305°
2026-04-28 10:35 44.01418 19.68411 36140 ft 412 kts 305°
2026-04-28 10:36 44.04733 19.61914 36135 ft 412 kts 305°
2026-04-28 10:36 44.08041 19.55420 36163 ft 411 kts 304°
2026-04-28 10:37 44.11344 19.48919 36152 ft 411 kts 304°
2026-04-28 10:37 44.14633 19.42419 36148 ft 411 kts 304°
2026-04-28 10:38 44.17911 19.35910 36151 ft 410 kts 304°
2026-04-28 10:38 44.21187 19.29404 36141 ft 410 kts 304°
2026-04-28 10:39 44.24464 19.22891 36147 ft 410 kts 304°
2026-04-28 10:39 44.27734 19.16374 36142 ft 410 kts 304°
2026-04-28 10:40 44.31000 19.09846 36147 ft 410 kts 304°
2026-04-28 10:40 44.34266 19.03312 36149 ft 410 kts 304°
2026-04-28 10:41 44.36981 18.97875 36148 ft 411 kts 304°
2026-04-28 10:41 44.40240 18.91323 36171 ft 410 kts 304°
2026-04-28 10:42 44.43491 18.84771 36166 ft 410 kts 304°
2026-04-28 10:42 44.46737 18.78216 36165 ft 410 kts 304°
2026-04-28 10:43 44.49981 18.71651 36155 ft 410 kts 304°
2026-04-28 10:43 44.53215 18.65082 36158 ft 410 kts 304°
2026-04-28 10:44 44.56447 18.58507 36158 ft 409 kts 304°
2026-04-28 10:44 44.59679 18.51926 36159 ft 409 kts 304°
2026-04-28 10:45 44.62904 18.45349 36162 ft 409 kts 304°
2026-04-28 10:45 44.66118 18.38766 36155 ft 409 kts 303°
2026-04-28 10:46 44.69330 18.32178 36172 ft 408 kts 303°
2026-04-28 10:46 44.72511 18.25650 36172 ft 407 kts 303°
2026-04-28 10:47 44.75699 18.19082 36174 ft 406 kts 303°
2026-04-28 10:47 44.78871 18.12513 36169 ft 406 kts 303°
2026-04-28 10:48 44.82042 18.05941 36160 ft 405 kts 303°
2026-04-28 10:48 44.85212 17.99373 36157 ft 405 kts 303°
2026-04-28 10:49 44.88367 17.92799 36160 ft 405 kts 303°
2026-04-28 10:49 44.91521 17.86218 36161 ft 405 kts 303°
2026-04-28 10:50 44.94669 17.79632 36144 ft 405 kts 303°
2026-04-28 10:50 44.97814 17.73040 36161 ft 405 kts 303°
2026-04-28 10:51 45.00960 17.66449 36174 ft 404 kts 303°
2026-04-28 10:51 45.04096 17.59864 36164 ft 404 kts 303°
2026-04-28 10:52 45.07221 17.53269 36172 ft 404 kts 303°
2026-04-28 10:52 45.10341 17.46661 36159 ft 403 kts 303°
2026-04-28 10:53 45.13455 17.40057 36161 ft 403 kts 303°
2026-04-28 10:53 45.16636 17.33516 36161 ft 403 kts 304°
2026-04-28 10:54 45.19890 17.27040 36160 ft 403 kts 304°
2026-04-28 10:54 45.23127 17.20551 36161 ft 403 kts 304°
2026-04-28 10:55 45.26348 17.14029 36141 ft 403 kts 304°
2026-04-28 10:55 45.29560 17.07507 36164 ft 403 kts 304°
2026-04-28 10:56 45.32767 17.00977 36166 ft 403 kts 303°
2026-04-28 10:56 45.35966 16.94449 36166 ft 402 kts 304°
2026-04-28 10:57 45.39161 16.87920 36154 ft 402 kts 303°
2026-04-28 10:57 45.42352 16.81373 36149 ft 402 kts 303°
2026-04-28 10:58 45.45540 16.74829 36149 ft 402 kts 303°
2026-04-28 10:58 45.48723 16.68277 36151 ft 402 kts 303°
2026-04-28 10:59 45.51901 16.61716 36152 ft 402 kts 303°
2026-04-28 10:59 45.55076 16.55147 36142 ft 402 kts 303°
2026-04-28 11:00 45.58015 16.48375 36143 ft 401 kts 291°
2026-04-28 11:00 45.59970 16.40873 36151 ft 404 kts 290°
2026-04-28 11:01 45.61856 16.33502 36151 ft 403 kts 290°
2026-04-28 11:01 45.62820 16.29728 35693 ft 407 kts 290°
2026-04-28 11:01 45.63791 16.25919 35873 ft 408 kts 290°
2026-04-28 11:01 45.64763 16.22095 36009 ft 411 kts 290°
2026-04-28 11:02 45.65748 16.18223 36009 ft 418 kts 290°
2026-04-28 11:02 45.67750 16.10307 36009 ft 429 kts 290°
2026-04-28 11:03 45.69790 16.02232 36010 ft 440 kts 290°
2026-04-28 11:03 45.71888 15.93942 36009 ft 446 kts 289°
2026-04-28 11:04 45.74007 15.85493 36009 ft 457 kts 282°
2026-04-28 11:04 45.76170 15.76802 36009 ft 470 kts 285°
2026-04-28 11:05 45.78396 15.67859 36008 ft 483 kts 284°
2026-04-28 11:05 45.80675 15.58678 36007 ft 496 kts 283°
2026-04-28 11:06 45.83010 15.49243 36008 ft 508 kts 283°
2026-04-28 11:06 45.85384 15.39585 36010 ft 519 kts 283°
2026-04-28 11:07 45.87809 15.29696 36008 ft 531 kts 284°
2026-04-28 11:07 45.90285 15.19558 36009 ft 544 kts 288°
2026-04-28 11:08 45.92818 15.09183 36012 ft 556 kts 288°
2026-04-28 11:08 45.95385 14.98609 35998 ft 566 kts 288°
2026-04-28 11:09 45.97946 14.87986 36627 ft 539 kts 287°
2026-04-28 11:09 45.99195 14.82905 36860 ft 542 kts 288°
2026-04-28 11:09 46.00440 14.77742 36279 ft 557 kts 287°
2026-04-28 11:09 46.01698 14.72406 35992 ft 570 kts 287°
2026-04-28 11:10 46.02965 14.66967 36012 ft 574 kts 287°
2026-04-28 11:10 46.05541 14.55983 36011 ft 584 kts 287°
2026-04-28 11:11 46.08179 14.44818 36008 ft 592 kts 287°
2026-04-28 11:11 46.10836 14.33537 36009 ft 596 kts 287°
2026-04-28 11:12 46.13487 14.22204 36011 ft 596 kts 287°
2026-04-28 11:12 46.16115 14.10872 36013 ft 597 kts 287°
2026-04-28 11:13 46.18740 13.99511 35994 ft 597 kts 287°
2026-04-28 11:13 46.21355 13.88147 36009 ft 597 kts 287°